Location: Waco, TX
(31.5480°N, 97.1670°W)
Time: 18:15:49
(UTC-06:00)

ISS - Pass Details

Date: 12 January 2019
Orbit: 404 x 410 km, 51.6° (Epoch: 24 January)

Event Time Altitude Azimuth Distance (km) Brightness Sun altitude
Rises 22:15:46 0° 222° (SW) 2,319 - -57.0°
Reaches altitude 10° 22:17:50 10° 222° (SW) 1,463 - -57.4°
Maximum altitude 22:21:07 84° 135° (SE) 415 - -58.1°
Drops below altitude 10° 22:24:26 10° 46° (NE) 1,474 - -58.8°
Sets 22:26:31 0° 46° (NE) 2,339 - -59.3°
